[[{"header":{"parameterUnit":"m.s-1","parameterCategory":1,"la1":30.2991,"la2":30.254,"lo1":-89.0895,"lo2":-89.0444,"dy":0.0017,"dx":0.0017,"nx":28,"ny":28,"refTime":"2025-12-11T09:00:00:Z","depth":0,"parameterNumber":2,"parameterNumberName":"U-component_of_WINDS"},"data":[0,0,0,0,0,0,0,0,0,0,0,0,0,0,0,0,0,0,0,0,0,0,0,0,0,0,0,0,0,0,0,0,0,0,0,0,0,0,0,0,0,0,0,0,0,0,0,0,0,0,0,0,0,0,0,0,0,0,-1.2486,-1.2486,0,-1.246,-1.246,-1.246,-1.242,-1.2419,-1.2419,-1.2418,-1.2392,-1.2392,-1.2392,0,0,0,0,0,0,0,0,0,0,0,0,0,-1.25,-1.25,-1.2486,-1.2486,-1.2485,-1.246,-1.246,-1.246,-1.242,-1.2419,-1.2418,-1.2418,-1.2392,-1.2392,-1.2392,0,0,0,0,0,0,0,0,0,0,0,0,0,-1.2486,-1.25,-1.2486,-1.2463,-1.246,-1.246,-1.246,-1.246,-1.242,-1.2419,-1.2418,-1.2417,-1.2392,-1.2392,-1.2391,-1.2413,0,0,-1.2391,-1.2391,0,0,0,0,0,0,0,0,-1.2487,-1.2486,-1.2466,-1.2464,-1.2462,-1.2442,-1.2455,-1.2444,-1.2421,-1.2435,-1.2418,-1.2417,-1.2409,-1.2408,-1.2405,-1.2411,-1.241,-1.2391,-1.2391,-1.2391,-1.2391,0,0,0,0,0,0,0,-1.2488,-1.2486,-1.2476,-1.2466,-1.2463,-1.2453,-1.245,-1.2453,-1.2429,-1.2434,-1.2431,-1.2429,-1.2408,-1.2405,-1.2404,-1.241,-1.2391,-1.2391,-1.2391,-1.2391,-1.243,-1.2431,0,0,0,0,0,0,-1.2492,-1.2487,-1.2477,-1.2475,-1.2472,-1.2454,-1.245,-1.245,-1.2429,-1.2424,-1.243,-1.2427,-1.2406,-1.2404,-1.2403,-1.2425,-1.2391,-1.2391,-1.2391,-1.2429,-1.243,-1.2431,0,0,0,0,0,0,-1.2493,-1.2492,-1.2478,-1.248,-1.2478,-1.2455,-1.2454,-1.245,-1.2447,-1.2425,-1.2421,-1.2432,-1.2405,-1.2403,-1.241,-1.2424,-1.2391,-1.2391,-1.2428,-1.2429,-1.2431,-1.247,0,0,0,0,0,0,-1.2493,-1.2492,-1.25,-1.2481,-1.2478,-1.2485,-1.2455,-1.245,-1.2447,-1.2443,-1.2426,-1.2422,-1.2404,-1.241,-1.241,-1.2423,-1.2391,-1.2426,-1.2428,-1.243,-1.2467,-1.2473,-1.2477,0,0,0,0,0,-1.2494,-1.2513,-1.2501,-1.25,-1.2488,-1.2486,-1.2485,-1.2464,-1.2449,-1.2456,-1.2442,-1.2422,-1.2423,-1.2411,-1.2411,-1.2424,-1.2425,-1.2428,-1.243,-1.2465,-1.2472,-1.2477,0,0,0,0,0,0,-1.2535,-1.251,-1.2496,-1.251,-1.25,-1.248,-1.2489,-1.2472,-1.2467,-1.2463,-1.2438,-1.2434,-1.2444,-1.2435,-1.2423,-1.2442,-1.2421,-1.2423,-1.2448,-1.2454,-1.2459,-1.246,-1.2391,0,0,0,0,0,-1.2545,-1.2546,-1.2525,-1.2538,-1.2534,-1.2512,-1.2511,-1.2496,-1.2485,-1.2481,-1.2467,-1.2458,-1.2455,-1.2454,-1.2451,-1.2466,-1.2461,-1.2475,-1.248,-1.2484,-1.2486,-1.2492,-1.2497,-1.2439,-1.2439,-1.2439,0,0,-1.2567,-1.2553,-1.2556,-1.2546,-1.2537,-1.2538,-1.2509,-1.2512,-1.2513,-1.2481,-1.2487,-1.2476,-1.2464,-1.2474,-1.2478,-1.2467,-1.2501,-1.2487,-1.2491,-1.249,-1.2495,-1.25,-1.2505,-1.2441,-1.2441,-1.244,0,0,-1.2606,-1.2597,-1.2607,-1.2598,-1.2585,-1.257,-1.2572,-1.2554,-1.2545,-1.255,-1.2526,-1.2526,-1.2523,-1.2515,-1.251,-1.2545,-1.2527,-1.2545,-1.2571,-1.2577,-1.2581,-1.2585,-1.2596,-1.2601,-1.2547,-1.2548,-1.2548,0,-1.2635,-1.2636,-1.2614,-1.2618,-1.2613,-1.2585,-1.2594,-1.2587,-1.2573,-1.2571,-1.2558,-1.2552,-1.2542,-1.255,-1.2558,-1.2556,-1.2557,-1.2547,-1.2582,-1.2586,-1.2589,-1.26,-1.2604,-1.255,-1.2549,-1.2549,-1.2549,0,-1.2671,-1.2672,-1.2682,-1.2668,-1.2665,-1.2672,-1.265,-1.265,-1.2634,-1.2621,-1.2625,-1.2612,-1.2604,-1.2605,-1.2591,-1.261,-1.2603,-1.2587,-1.2565,-1.2597,-1.2607,-1.2611,-1.2553,-1.2552,-1.2551,-1.2551,0,0,-1.2736,-1.2709,-1.2713,-1.2706,-1.2689,-1.2689,-1.2694,-1.2687,-1.2686,-1.2678,-1.268,-1.2678,-1.2662,-1.2657,-1.2641,-1.2646,-1.2673,-1.2629,-1.2628,-1.2636,-1.2692,-1.2703,-1.2708,-1.2661,-1.2662,-1.2662,-1.2693,0,-1.2771,-1.2778,-1.2757,-1.2769,-1.2769,-1.2741,-1.2745,-1.2735,-1.2722,-1.272,-1.2705,-1.2703,-1.2684,-1.268,-1.2684,-1.2669,-1.2684,-1.2667,-1.2662,-1.2662,-1.2665,-1.2713,-1.2726,-1.2755,-1.2696,-1.2697,-1.2697,0,-1.2813,-1.2806,-1.2818,-1.2798,-1.2798,-1.2802,-1.2792,-1.2791,-1.2778,-1.2768,-1.2762,-1.2743,-1.2746,-1.2725,-1.2727,-1.2716,-1.2713,-1.2705,-1.2706,-1.2704,-1.2681,-1.2711,-1.2764,-1.2768,-1.2703,-1.2703,-1.2702,0,-1.2857,-1.2851,-1.2856,-1.2852,-1.283,-1.2833,-1.2824,-1.281,-1.2806,-1.2798,-1.2795,-1.2788,-1.2784,-1.2778,-1.2757,-1.2745,-1.2762,-1.274,-1.2753,-1.2753,-1.2757,-1.2757,-1.2808,-1.2757,-1.2757,-1.2757,-1.2757,0,-1.2898,-1.2906,-1.2876,-1.2879,-1.2887,-1.2863,-1.2871,-1.2859,-1.2847,-1.2847,-1.2823,-1.2823,-1.2797,-1.2794,-1.2778,-1.2781,-1.278,-1.2771,-1.2767,-1.2773,-1.2774,-1.277,-1.2767,-1.2758,-1.2758,-1.2758,-1.2757,0,-1.2949,-1.2929,-1.2933,-1.2912,-1.2906,-1.2913,-1.2894,-1.2896,-1.2881,-1.2882,-1.288,-1.2857,-1.2853,-1.2832,-1.2822,-1.2811,-1.282,-1.2812,-1.2824,-1.2821,-1.2834,-1.2833,-1.2884,-1.2889,-1.2836,-1.2837,-1.2837,0,-1.2975,-1.2981,-1.296,-1.2958,-1.295,-1.2947,-1.2943,-1.292,-1.2917,-1.2901,-1.2905,-1.2898,-1.2892,-1.2885,-1.2867,-1.286,-1.285,-1.2869,-1.2849,-1.2854,-1.2849,-1.2848,-1.2848,-1.2873,-1.2874,-1.2874,-1.2875,0,-1.3025,-1.3014,-1.301,-1.3001,-1.2997,-1.2989,-1.298,-1.298,-1.2953,-1.2951,-1.2945,-1.294,-1.293,-1.2923,-1.2912,-1.2902,-1.2884,-1.2881,-1.2883,-1.2889,-1.2895,-1.289,-1.2834,-1.288,-1.2879,-1.2879,-1.2879,-1.2878,-1.3063,-1.3066,-1.3051,-1.3046,-1.3036,-1.3028,-1.3028,-1.3013,-1.3009,-1.2998,-1.2985,-1.2981,-1.2967,-1.295,-1.2941,-1.2937,-1.2927,-1.2931,-1.2932,-1.2933,-1.2935,-1.2897,-1.2936,-1.2935,-1.2935,-1.2935,-1.2935,0,-1.311,-1.3099,-1.3094,-1.3082,-1.3078,-1.3061,-1.3049,-1.3047,-1.3044,-1.3032,-1.3026,-1.3019,-1.3012,-1.2993,-1.2984,-1.2984,-1.2976,-1.2983,-1.2982,-1.2979,-1.2945,-1.2944,-1.299,-1.299,-1.299,-1.299,-1.299,-1.299,-1.3133,-1.3137,-1.3124,-1.3122,-1.3111,-1.3107,-1.3102,-1.3093,-1.3084,-1.3077,-1.3071,-1.3059,-1.3044,-1.3034,-1.3026,-1.3021,-1.3018,-1.3027,-1.3019,-1.2987,-1.2982,-1.2977,-1.2975,-1.3027,-1.3027,-1.3053,-1.3053,-1.3054]},{"header":{"parameterUnit":"m.s-1","parameterCategory":1,"la1":30.2991,"la2":30.254,"lo1":-89.0895,"lo2":-89.0444,"dy":0.0017,"dx":0.0017,"nx":28,"ny":28,"refTime":"2025-12-11T09:00:00:Z","depth":0,"parameterNumber":3,"parameterNumberName":"V-component_of_WINDS"},"data":[0,0,0,0,0,0,0,0,0,0,0,0,0,0,0,0,0,0,0,0,0,0,0,0,0,0,0,0,0,0,0,0,0,0,0,0,0,0,0,0,0,0,0,0,0,0,0,0,0,0,0,0,0,0,0,0,0,0,0.7568,0.7569,0,0.7657,0.7658,0.7659,0.7664,0.7663,0.7662,0.7661,0.7758,0.7762,0.7765,0,0,0,0,0,0,0,0,0,0,0,0,0,0.741,0.7412,0.7568,0.7569,0.7571,0.7657,0.7658,0.7659,0.7664,0.7663,0.7662,0.7661,0.7757,0.7761,0.7766,0,0,0,0,0,0,0,0,0,0,0,0,0,0.7487,0.7413,0.7568,0.7583,0.7586,0.7657,0.7658,0.766,0.7665,0.7663,0.7662,0.766,0.7756,0.7761,0.7766,0.783,0,0,0.7782,0.7785,0,0,0,0,0,0,0,0,0.7482,0.7492,0.758,0.7582,0.7585,0.7648,0.7638,0.7717,0.7665,0.7635,0.7661,0.7659,0.7723,0.7731,0.7751,0.7835,0.7839,0.7783,0.7786,0.7788,0.779,0,0,0,0,0,0,0,0.7477,0.7489,0.7604,0.7581,0.7584,0.7588,0.7597,0.7653,0.7687,0.7637,0.7638,0.7648,0.7724,0.7746,0.7754,0.784,0.7783,0.7788,0.7791,0.7793,0.7981,0.7983,0,0,0,0,0,0,0.7468,0.7484,0.7601,0.7606,0.7528,0.7592,0.7602,0.7629,0.7686,0.7693,0.7649,0.7648,0.7738,0.7748,0.7757,0.7836,0.7788,0.7793,0.7796,0.798,0.7982,0.7984,0,0,0,0,0,0,0.7464,0.7478,0.7597,0.7545,0.7561,0.7596,0.7627,0.7632,0.7654,0.7695,0.7702,0.7665,0.7737,0.775,0.7812,0.784,0.7796,0.7801,0.7977,0.798,0.7983,0.7995,0,0,0,0,0,0,0.746,0.7477,0.75,0.7546,0.7563,0.7649,0.7628,0.7635,0.7662,0.7661,0.7712,0.7719,0.7737,0.7804,0.7817,0.7846,0.7805,0.7975,0.7979,0.7982,0.7992,0.7998,0.8003,0,0,0,0,0,0.7454,0.7501,0.7501,0.7515,0.7593,0.765,0.7661,0.7679,0.7664,0.7689,0.7716,0.7717,0.7834,0.781,0.7825,0.7856,0.7974,0.7978,0.7982,0.799,0.7997,0.8002,0,0,0,0,0,0,0.7461,0.7508,0.7508,0.7571,0.7606,0.7651,0.7683,0.7685,0.7727,0.7725,0.7747,0.7759,0.782,0.7845,0.7817,0.7922,0.7903,0.791,0.7904,0.7911,0.7915,0.7909,0.7809,0,0,0,0,0,0.7469,0.7509,0.7549,0.7601,0.7618,0.7647,0.7673,0.7684,0.7722,0.7738,0.7769,0.7808,0.7853,0.7883,0.7927,0.7995,0.8007,0.8024,0.8029,0.8033,0.804,0.8079,0.8087,0.7997,0.7997,0.7997,0,0,0.7488,0.7518,0.7543,0.7603,0.7632,0.7675,0.766,0.7707,0.774,0.7745,0.7805,0.783,0.7875,0.794,0.797,0.7962,0.8067,0.8039,0.8041,0.8046,0.8084,0.8092,0.81,0.8,0.7999,0.7999,0,0,0.7544,0.757,0.7617,0.7645,0.7687,0.7706,0.7717,0.7761,0.7777,0.7837,0.7842,0.7883,0.796,0.7992,0.8019,0.8086,0.8089,0.81,0.8127,0.8165,0.8172,0.8178,0.8203,0.8212,0.8106,0.8106,0.8106,0,0.7563,0.7626,0.7641,0.7687,0.7714,0.7718,0.7767,0.7794,0.785,0.7869,0.7858,0.7956,0.7987,0.806,0.8076,0.8097,0.8112,0.8095,0.8169,0.8176,0.8182,0.8206,0.8216,0.8107,0.8107,0.8107,0.8107,0,0.7647,0.7691,0.7724,0.7774,0.7805,0.7852,0.7876,0.7906,0.7913,0.7934,0.7996,0.8032,0.8084,0.8102,0.8111,0.8177,0.817,0.8164,0.8145,0.8191,0.8215,0.8224,0.8109,0.8108,0.8108,0.8108,0,0,0.7712,0.7769,0.7781,0.7804,0.7851,0.7886,0.7934,0.7982,0.8008,0.8046,0.8087,0.8153,0.8147,0.8177,0.8189,0.8222,0.8274,0.8212,0.8213,0.8223,0.835,0.8355,0.8366,0.8275,0.8277,0.8279,0.8347,0,0.7774,0.7856,0.7871,0.7944,0.7985,0.799,0.8032,0.8066,0.8086,0.8126,0.8149,0.8195,0.8183,0.8201,0.8234,0.8261,0.83,0.8256,0.8317,0.8319,0.8307,0.8378,0.8384,0.8446,0.8356,0.8357,0.8358,0,0.7858,0.7896,0.7972,0.8013,0.8031,0.8068,0.8113,0.815,0.819,0.8202,0.8235,0.8243,0.8295,0.8273,0.8345,0.8314,0.834,0.8357,0.836,0.8368,0.8342,0.8389,0.8467,0.8476,0.8373,0.8372,0.8371,0,0.7899,0.7969,0.8024,0.8043,0.8092,0.8118,0.814,0.8177,0.8205,0.8246,0.8264,0.8311,0.8337,0.8374,0.8396,0.8377,0.8467,0.8446,0.848,0.848,0.8501,0.8499,0.8585,0.8515,0.8514,0.8514,0.8514,0,0.7968,0.8015,0.8042,0.8076,0.8129,0.8146,0.8199,0.8221,0.8254,0.8294,0.8301,0.8338,0.8364,0.8406,0.8423,0.8481,0.8492,0.8505,0.851,0.8506,0.8504,0.8524,0.8521,0.8517,0.8516,0.8516,0.8515,0,0.8024,0.8044,0.8104,0.8144,0.8155,0.8192,0.8228,0.8262,0.8281,0.8331,0.8344,0.8376,0.8425,0.8449,0.8512,0.8523,0.8589,0.859,0.8575,0.8577,0.8611,0.8608,0.8714,0.8729,0.8647,0.8648,0.8648,0,0.8067,0.8103,0.8146,0.8172,0.8193,0.8235,0.8263,0.8281,0.8311,0.8357,0.8386,0.8435,0.8476,0.8555,0.8585,0.8632,0.8635,0.8669,0.8643,0.8638,0.8638,0.8636,0.864,0.8674,0.8675,0.8676,0.8676,0,0.8143,0.815,0.8189,0.8231,0.8264,0.8299,0.8333,0.8354,0.8378,0.8411,0.846,0.8491,0.8554,0.8603,0.8653,0.8677,0.8682,0.8684,0.8695,0.8692,0.8682,0.8689,0.859,0.8682,0.8681,0.8681,0.8681,0.868,0.8195,0.8227,0.8261,0.8304,0.8331,0.8363,0.8397,0.842,0.846,0.8511,0.8519,0.8572,0.8611,0.8677,0.8704,0.8747,0.874,0.8755,0.8759,0.8763,0.8765,0.8673,0.8756,0.8755,0.8755,0.8755,0.8755,0,0.8271,0.8293,0.8333,0.8379,0.8413,0.8411,0.8449,0.8479,0.8524,0.8559,0.8597,0.8654,0.8702,0.8735,0.8784,0.8812,0.8815,0.8824,0.8823,0.8829,0.8768,0.8754,0.8821,0.8821,0.8821,0.8821,0.8821,0.8821,0.8316,0.837,0.8381,0.8449,0.8472,0.8521,0.8543,0.8574,0.8601,0.8664,0.8702,0.8722,0.8757,0.8808,0.8852,0.8861,0.8879,0.8889,0.8898,0.884,0.8833,0.8827,0.8814,0.8892,0.8892,0.8955,0.8956,0.8956]}]]